Starlink 30198

operational
NORAD ID: 57290 Int'l Des: 2023-096 Owner: SPXS Country: US Constellation: starlink
LEOCIRCULAR

关于 Starlink 30198

正在加载描述...

实时位置

正在加载3D地球...

即将过境

高度历史

Altitude vs Time

uPlot chart will show altitude changes over time

两行轨道根数

1 57290U 23096A 25260.91841592 -.00000180 00000-0 17240-5 0 9996
2 57290 43.0033 82.3381 0001138 268.3669 91.7043 15.02532596121620
Epoch: Sep 17, 2025 • Age: 13 hours

当前状态

高度 558.5 km
速度 7.59 km/s
星下点 14.70°N, 72.8°E
发射日期 Jul 10, 2023
运行时间 2.1 years
类型 internet

技术详情

分类 Payload
质量 730.00 kg
干质量 700.00 kg
总质量 730.00 kg
长度 0.30 m
直径 4.10 m
跨度 29.00 m
形状 Box + pan
制造商 SPXS
平台类型 Starlink V2M
阶段状态 In Orbit
所有者/国家 SPXS/US

大型星座

Loading constellations...